Location: Poughquag
(41.6090°N, 73.6820°W)
Time: 04:34:34
(UTC-05:00)

CAS-4B - Visible Passes

Search period start: 28 November 2023 00:00
Search period end: 08 December 2023 00:00
Orbit: 495 x 508 km, 43.0° (Epoch: 28 November)

Date Brightness Start Highest point End Pass type
(mag) Time Alt. Az. Time Alt. Az. Time Alt. Az.
28 Nov ? 18:21:31 10° WSW 18:25:22 82° SSE 18:25:22 82° SSE visible
29 Nov ? 17:59:53 10° WSW 18:03:45 85° SSE 18:04:47 47° E visible
29 Nov ? 19:39:22 10° W 19:39:25 10° W 19:39:25 10° W visible
30 Nov ? 17:38:14 10° WSW 17:42:06 88° SSE 17:44:10 26° ENE visible
30 Nov ? 19:17:43 10° W 19:18:47 18° WNW 19:18:47 18° WNW visible
01 Dec ? 17:16:33 10° WSW 17:20:26 90° ENE 17:23:30 15° ENE visible
01 Dec ? 18:56:03 10° W 18:58:08 30° WNW 18:58:08 30° WNW visible
02 Dec ? 16:54:50 10° WSW 16:58:43 88° N 17:02:35 10° ENE visible
02 Dec ? 18:34:20 10° W 18:37:27 54° WNW 18:37:27 54° WNW visible
03 Dec ? 18:12:36 10° W 18:16:28 74° N 18:16:47 68° NE visible
04 Dec ? 17:50:50 10° W 17:54:42 75° N 17:56:08 36° E visible
04 Dec ? 19:30:16 10° W 19:30:45 13° W 19:30:45 13° W visible
05 Dec ? 17:29:02 10° W 17:32:54 76° N 17:35:31 19° E visible
05 Dec ? 19:08:28 10° W 19:10:09 23° W 19:10:09 23° W visible
06 Dec ? 17:07:12 10° WNW 17:11:04 77° N 17:14:56 10° E visible
06 Dec ? 18:46:39 10° W 18:49:37 38° WSW 18:49:37 38° WSW visible
07 Dec ? 18:24:48 10° W 18:28:27 40° SSW 18:29:11 36° S visible
